Time,TemperatureF,DewpointF,PressureIn,WindDirection,WindDirectionDegrees,WindSpeedMPH,WindSpeedGustMPH,Humidity,HourlyPrecipIn,Conditions,Clouds,dailyrainin,SolarRadiationWatts/m^2,SoftwareType,DateUTC
2013-07-23 00:01:00,72.0,65.0,-100.00,South,185,11.0,17.0,80,0.00,,,0.00,0.000000,,2013-07-23 04:01:00,
2013-07-23 00:11:00,72.0,65.0,-100.00,South,185,11.0,17.0,80,0.00,,,0.00,0.000000,,2013-07-23 04:11:00,
2013-07-23 00:43:00,71.0,66.0,-100.00,South,190,10.0,18.0,84,0.00,,,0.00,0.000000,,2013-07-23 04:43:00,
2013-07-23 00:53:00,71.0,66.0,-100.00,South,190,10.0,18.0,84,0.00,,,0.00,0.000000,,2013-07-23 04:53:00,
2013-07-23 01:02:00,71.0,66.0,-100.00,South,190,10.0,18.0,84,0.00,,,0.00,0.000000,,2013-07-23 05:02:00,
2013-07-23 01:11:00,71.0,66.0,-100.00,South,190,10.0,18.0,84,0.00,,,0.00,0.000000,,2013-07-23 05:11:00,
2013-07-23 01:44:00,71.0,65.0,-100.00,West,274,12.0,20.0,82,0.00,,,0.00,0.000000,,2013-07-23 05:44:00,
2013-07-23 01:52:00,71.0,65.0,-100.00,West,274,12.0,20.0,82,0.00,,,0.00,0.000000,,2013-07-23 05:52:00,
2013-07-23 02:01:00,71.0,65.0,-100.00,West,274,12.0,20.0,82,0.00,,,0.00,0.000000,,2013-07-23 06:01:00,
2013-07-23 02:11:00,71.0,65.0,-100.00,West,274,12.0,20.0,82,0.00,,,0.00,0.000000,,2013-07-23 06:11:00,
2013-07-23 02:42:00,69.0,66.0,-100.00,West,259,9.0,21.0,89,0.01,,,0.01,0.000000,,2013-07-23 06:42:00,
2013-07-23 02:52:00,69.0,66.0,-100.00,West,259,9.0,21.0,89,0.01,,,0.01,0.000000,,2013-07-23 06:52:00,
2013-07-23 03:01:00,69.0,66.0,-100.00,West,259,9.0,21.0,89,0.01,,,0.01,0.000000,,2013-07-23 07:01:00,
2013-07-23 03:12:00,69.0,66.0,-100.00,West,259,9.0,21.0,89,0.01,,,0.01,0.000000,,2013-07-23 07:12:00,
2013-07-23 03:42:00,66.0,58.0,-100.00,WNW,299,7.0,15.0,75,0.00,,,0.01,0.000000,,2013-07-23 07:42:00,
2013-07-23 03:52:00,66.0,58.0,-100.00,WNW,299,7.0,15.0,75,0.00,,,0.01,0.000000,,2013-07-23 07:52:00,
2013-07-23 04:01:00,66.0,58.0,-100.00,WNW,299,7.0,15.0,75,0.00,,,0.01,0.000000,,2013-07-23 08:01:00,
2013-07-23 04:11:00,66.0,58.0,-100.00,WNW,299,7.0,15.0,75,0.00,,,0.01,0.000000,,2013-07-23 08:11:00,
2013-07-23 04:43:00,64.0,54.0,-100.00,NW,305,9.0,15.0,71,0.00,,,0.01,0.000000,,2013-07-23 08:43:00,
2013-07-23 04:52:00,64.0,54.0,-100.00,NW,305,9.0,15.0,71,0.00,,,0.01,0.000000,,2013-07-23 08:52:00,
2013-07-23 05:01:00,64.0,54.0,-100.00,NW,305,9.0,15.0,71,0.00,,,0.01,0.000000,,2013-07-23 09:01:00,
2013-07-23 05:11:00,64.0,54.0,-100.00,NW,305,9.0,15.0,71,0.00,,,0.01,0.000000,,2013-07-23 09:11:00,
2013-07-23 05:43:00,60.0,53.0,-100.00,NW,316,13.0,23.0,79,0.00,,,0.01,0.000000,,2013-07-23 09:43:00,
2013-07-23 05:53:00,60.0,53.0,-100.00,NW,316,13.0,23.0,79,0.00,,,0.01,0.000000,,2013-07-23 09:53:00,
2013-07-23 06:02:00,60.0,53.0,-100.00,NW,316,13.0,23.0,79,0.00,,,0.01,0.000000,,2013-07-23 10:02:00,
2013-07-23 06:11:00,60.0,53.0,-100.00,NW,316,13.0,23.0,79,0.00,,,0.01,0.000000,,2013-07-23 10:11:00,
2013-07-23 06:44:00,55.0,49.0,-100.00,NW,306,7.0,20.0,81,0.00,,,0.01,0.000000,,2013-07-23 10:44:00,
2013-07-23 06:52:00,55.0,49.0,-100.00,NW,306,7.0,20.0,81,0.00,,,0.01,0.000000,,2013-07-23 10:52:00,
2013-07-23 07:02:00,55.0,49.0,-100.00,NW,306,7.0,20.0,81,0.00,,,0.01,0.000000,,2013-07-23 11:02:00,
2013-07-23 07:12:00,55.0,49.0,-100.00,NW,306,7.0,20.0,81,0.00,,,0.01,0.000000,,2013-07-23 11:12:00,
2013-07-23 07:43:00,56.0,49.0,-100.00,WNW,297,6.0,10.0,78,0.00,,,0.01,45.000000,,2013-07-23 11:43:00,
2013-07-23 07:52:00,56.0,49.0,-100.00,WNW,297,6.0,10.0,78,0.00,,,0.01,45.000000,,2013-07-23 11:52:00,
2013-07-23 08:02:00,56.0,49.0,-100.00,WNW,297,6.0,10.0,78,0.00,,,0.01,45.000000,,2013-07-23 12:02:00,
2013-07-23 08:11:00,56.0,49.0,-100.00,WNW,297,6.0,10.0,78,0.00,,,0.01,45.000000,,2013-07-23 12:11:00,
2013-07-23 08:43:00,58.0,49.0,-100.00,WNW,285,10.0,17.0,72,0.00,,,0.01,229.000000,,2013-07-23 12:43:00,
2013-07-23 09:01:00,58.0,49.0,-100.00,WNW,285,10.0,17.0,72,0.00,,,0.01,229.000000,,2013-07-23 13:01:00,
2013-07-23 09:11:00,58.0,49.0,-100.00,WNW,285,10.0,17.0,72,0.00,,,0.01,229.000000,,2013-07-23 13:11:00,
2013-07-23 10:44:00,60.0,50.0,-100.00,West,280,14.0,23.0,69,-99.99,,,0.01,349.000000,,2013-07-23 14:44:00,
2013-07-23 10:54:00,60.0,50.0,-100.00,West,280,14.0,23.0,69,-99.99,,,0.01,349.000000,,2013-07-23 14:54:00,
2013-07-23 11:03:00,60.0,50.0,-100.00,West,280,14.0,23.0,69,-99.99,,,0.01,349.000000,,2013-07-23 15:03:00,
2013-07-23 11:11:00,60.0,50.0,-100.00,West,280,14.0,23.0,69,-99.99,,,0.01,349.000000,,2013-07-23 15:11:00,
2013-07-23 11:43:00,59.0,50.0,-100.00,WNW,300,14.0,24.0,71,0.00,,,0.01,470.000000,,2013-07-23 15:43:00,
2013-07-23 11:52:00,59.0,50.0,-100.00,WNW,300,14.0,24.0,71,0.00,,,0.01,470.000000,,2013-07-23 15:52:00,
2013-07-23 12:01:00,59.0,50.0,-100.00,WNW,300,14.0,24.0,71,0.00,,,0.01,470.000000,,2013-07-23 16:01:00,
2013-07-23 12:12:00,59.0,50.0,-100.00,WNW,300,14.0,24.0,71,0.00,,,0.01,470.000000,,2013-07-23 16:12:00,
2013-07-23 12:43:00,60.0,51.0,-100.00,WNW,302,13.0,27.0,73,0.00,,,0.01,580.000000,,2013-07-23 16:43:00,
2013-07-23 12:52:00,60.0,51.0,-100.00,WNW,302,13.0,27.0,73,0.00,,,0.01,580.000000,,2013-07-23 16:52:00,
2013-07-23 13:02:00,60.0,51.0,-100.00,WNW,302,13.0,27.0,73,0.00,,,0.01,580.000000,,2013-07-23 17:02:00,
2013-07-23 13:11:00,60.0,51.0,-100.00,WNW,302,13.0,27.0,73,0.00,,,0.01,580.000000,,2013-07-23 17:11:00,
2013-07-23 13:42:00,59.0,50.0,-100.00,NW,308,14.0,28.0,71,0.00,,,0.01,475.000000,,2013-07-23 17:42:00,
2013-07-23 13:57:00,59.0,50.0,-100.00,NW,308,14.0,28.0,71,0.00,,,0.01,475.000000,,2013-07-23 17:57:00,
2013-07-23 14:04:00,59.0,50.0,-100.00,NW,308,14.0,28.0,71,0.00,,,0.01,475.000000,,2013-07-23 18:04:00,
2013-07-23 14:13:00,59.0,50.0,-100.00,NW,308,14.0,28.0,71,0.00,,,0.01,475.000000,,2013-07-23 18:13:00,
2013-07-23 14:14:00,58.0,47.0,-100.00,NW,306,16.0,30.0,67,0.00,,,0.01,570.000000,,2013-07-23 18:14:00,
2013-07-23 14:49:00,58.0,47.0,-100.00,NW,306,16.0,30.0,67,0.00,,,0.01,570.000000,,2013-07-23 18:49:00,
2013-07-23 14:58:00,58.0,47.0,-100.00,NW,306,16.0,30.0,67,0.00,,,0.01,570.000000,,2013-07-23 18:58:00,
2013-07-23 15:03:00,58.0,47.0,-100.00,NW,306,16.0,30.0,67,0.00,,,0.01,570.000000,,2013-07-23 19:03:00,
2013-07-23 15:55:00,62.0,47.0,-100.00,NW,307,19.0,31.0,59,0.00,,,0.01,787.000000,,2013-07-23 19:55:00,
2013-07-23 16:07:00,62.0,47.0,-100.00,NW,307,19.0,31.0,59,0.00,,,0.01,787.000000,,2013-07-23 20:07:00,
2013-07-23 16:13:00,62.0,47.0,-100.00,NW,307,19.0,31.0,59,0.00,,,0.01,787.000000,,2013-07-23 20:13:00,
2013-07-23 16:14:00,61.0,47.0,-100.00,NW,318,19.0,33.0,60,0.00,,,0.01,933.000000,,2013-07-23 20:14:00,
2013-07-23 16:48:00,61.0,47.0,-100.00,NW,318,19.0,33.0,60,0.00,,,0.01,933.000000,,2013-07-23 20:48:00,
2013-07-23 16:59:00,61.0,47.0,-100.00,NW,318,19.0,33.0,60,0.00,,,0.01,933.000000,,2013-07-23 20:59:00,
2013-07-23 17:05:00,61.0,47.0,-100.00,NW,318,19.0,33.0,60,0.00,,,0.01,933.000000,,2013-07-23 21:05:00,
2013-07-23 17:48:00,62.0,47.0,-100.00,NW,319,15.0,34.0,58,0.00,,,0.01,836.000000,,2013-07-23 21:48:00,
2013-07-23 17:57:00,62.0,47.0,-100.00,NW,319,15.0,34.0,58,0.00,,,0.01,836.000000,,2013-07-23 21:57:00,
2013-07-23 18:05:00,62.0,47.0,-100.00,NW,319,15.0,34.0,58,0.00,,,0.01,836.000000,,2013-07-23 22:05:00,
2013-07-23 18:12:00,62.0,47.0,-100.00,NW,319,15.0,34.0,58,0.00,,,0.01,836.000000,,2013-07-23 22:12:00,
2013-07-23 18:14:00,61.0,45.0,-100.00,NW,319,16.0,31.0,56,0.00,,,0.01,672.000000,,2013-07-23 22:14:00,
2013-07-23 18:47:00,61.0,45.0,-100.00,NW,319,16.0,31.0,56,0.00,,,0.01,672.000000,,2013-07-23 22:47:00,
2013-07-23 19:06:00,61.0,45.0,-100.00,NW,319,16.0,31.0,56,0.00,,,0.01,672.000000,,2013-07-23 23:06:00,
2013-07-23 19:14:00,61.0,45.0,-100.00,NW,318,11.0,29.0,56,0.00,,,0.01,432.000000,,2013-07-23 23:14:00,
2013-07-23 19:47:00,61.0,45.0,-100.00,NW,318,11.0,29.0,56,0.00,,,0.01,432.000000,,2013-07-23 23:47:00,
2013-07-23 20:00:00,61.0,45.0,-100.00,NW,318,11.0,29.0,56,0.00,,,0.01,432.000000,,2013-07-24 00:00:00,
2013-07-23 20:09:00,61.0,45.0,-100.00,NW,318,11.0,29.0,56,0.00,,,0.01,432.000000,,2013-07-24 00:09:00,
2013-07-23 20:14:00,59.0,44.0,-100.00,NW,313,10.0,22.0,58,0.00,,,0.01,258.000000,,2013-07-24 00:14:00,
2013-07-23 20:50:00,59.0,44.0,-100.00,NW,313,10.0,22.0,58,0.00,,,0.01,258.000000,,2013-07-24 00:50:00,
2013-07-23 20:58:00,59.0,44.0,-100.00,NW,313,10.0,22.0,58,0.00,,,0.01,258.000000,,2013-07-24 00:58:00,
2013-07-23 21:04:00,59.0,44.0,-100.00,NW,313,10.0,22.0,58,0.00,,,0.01,258.000000,,2013-07-24 01:04:00,
2013-07-23 21:47:00,55.0,45.0,-100.00,NW,309,5.0,18.0,68,0.00,,,0.01,72.000000,,2013-07-24 01:47:00,
2013-07-23 22:01:00,55.0,45.0,-100.00,NW,309,5.0,18.0,68,0.00,,,0.01,72.000000,,2013-07-24 02:01:00,
2013-07-23 22:48:00,52.0,45.0,-100.00,NNW,332,3.0,7.0,78,0.00,,,-99.99,2.000000,,2013-07-24 02:48:00,
2013-07-23 22:57:00,52.0,45.0,-100.00,NNW,332,3.0,7.0,78,0.00,,,-99.99,2.000000,,2013-07-24 02:57:00,
2013-07-23 23:05:00,52.0,45.0,-100.00,NNW,332,3.0,7.0,78,0.00,,,-99.99,2.000000,,2013-07-24 03:05:00,
2013-07-23 23:13:00,52.0,45.0,-100.00,NNW,332,3.0,7.0,78,0.00,,,-99.99,2.000000,,2013-07-24 03:13:00,
2013-07-23 23:58:00,51.0,47.0,-100.00,NW,311,5.0,7.0,86,0.00,,,0.01,0.000000,,2013-07-24 03:58:00,